Home   Weather   London   Past weeks
Flag for United Kingdom

Past Weather in London, England, United Kingdom — August 2017

Now
70 °F

Partly sunny.


Feels Like: 70 °F
Forecast: 70 / 53 °F
Wind: 3 mph from Southwest

Location: Northolt

Current Time: May 27, 2020 at 11:24:29 am

Latest Report: May 27, 2020 at 10:50 am


Visibility: N/A

Pressure: 30.57 "Hg

Humidity: 50%

Dew Point: 50 °F

Location of LondonLocation

August 2017 Weather in London — Graph

°F

High & Low Weather Summary for August 2017

 TemperatureHumidityPressure
High81 °F (Aug 28, 1:50 pm)100% (Aug 2, 3:33 pm)30.24 "Hg (Aug 2, 3:33 pm)
Low46 °F (Aug 11, 4:50 am)38% (Aug 13, 1:50 pm)29.68 "Hg (Aug 3, 1:50 am)
Average62 °F77%30.00 "Hg
* Reported Aug 1 12:50 am — Aug 31 11:50 pm, London. Weather by CustomWeather, © 2020

Note: Actual official high and low records may vary slightly from our data, if they occured in-between our weather recording intervals... More about our weather records

London Weather History for August 1, 2017

Scroll right to see more
 ConditionsComfort  
Time TempWeatherWind HumidityBarometerVisibility
12:50 am
Tue, Aug 1
55 °FClear.3 mph88%29.92 "Hg10 mi
1:50 am55 °FClear.2 mph88%29.92 "Hg10 mi
2:50 am54 °FPassing clouds.2 mph94%29.92 "HgN/A
3:50 am55 °FPassing clouds.2 mph94%29.95 "HgN/A
4:50 am55 °FPassing clouds.2 mph94%29.92 "HgN/A
5:50 am55 °FLow clouds.2 mph94%29.92 "HgN/A
6:50 am55 °FPassing clouds.3 mph94%29.95 "HgN/A
7:50 am59 °FPartly sunny.7 mph88%29.98 "HgN/A
8:50 am61 °FScattered clouds.10 mph83%29.98 "HgN/A
9:50 am64 °FPassing clouds.12 mph68%29.95 "HgN/A
10:50 am70 °FScattered clouds.9 mph60%29.95 "HgN/A
11:50 am68 °FBroken clouds.10 mph56%29.95 "HgN/A
12:50 pm70 °FPartly sunny.12 mph53%29.95 "HgN/A
1:50 pm68 °FBroken clouds.13 mph60%29.95 "HgN/A
2:50 pm66 °FPartly sunny.13 mph68%29.95 "HgN/A
3:50 pm66 °FBroken clouds.13 mph64%29.95 "HgN/A
4:50 pm70 °FScattered clouds.16 mph53%29.95 "HgN/A
5:50 pm70 °FBroken clouds.15 mph53%29.95 "HgN/A
6:50 pm68 °FPartly sunny.13 mph56%29.95 "HgN/A
7:50 pm66 °FPartly sunny.13 mph60%29.95 "HgN/A
8:50 pm64 °FPassing clouds.10 mph64%29.98 "HgN/A
9:50 pm63 °FPassing clouds.8 mph68%29.98 "HgN/A
10:50 pm61 °FClear.9 mph77%29.98 "Hg10 mi
11:50 pm61 °FClear.7 mph77%29.98 "Hg10 mi
Weather by CustomWeather, © 2020

See weather overview

Advertising